DateTimeUTC,F1_A11,F1_S11,BsB_S11,BsG_S11,BsR_S11,BbsB_S11,BbsG_S11,BbsR_S11,BaB_A11,BaG_A11,BaR_A11,Tu_S11,T_S11,Uu_S11,U_S11,P_S11,T1_A11
2021-06-29T21:00:00Z,00000200,20000000,,,,,,,0000.12,-000.32,0000.08,19.2,26.0,09.5,06.3,0657.1,31.2
2021-06-29T21:01:00Z,00000200,20000000,,,,,,,0000.10,0000.06,0000.23,19.2,26.0,09.5,06.3,0657.1,31.2
2021-06-29T21:02:00Z,00000200,20000000,,,,,,,-000.03,0000.17,0000.07,19.2,26.0,09.5,06.3,0657.1,31.2
2021-06-29T21:03:00Z,00000200,60000000,,,,,,,0000.08,0000.18,-000.07,19.2,26.0,09.5,06.3,0657.1,31.2
2021-06-29T21:04:00Z,00000200,40000000,0000.67,-000.21,0000.10,0000.94,0000.15,-000.22,-000.21,-000.29,-000.23,19.6,25.9,09.1,06.2,0658.0,31.2
2021-06-29T21:05:00Z,00000200,00000000,0000.36,-000.00,-000.09,-000.05,-000.19,-000.23,-000.12,-000.09,0000.20,19.6,25.9,08.8,06.0,0657.9,31.2
2021-06-29T21:06:00Z,00000200,00000000,0000.37,0000.05,0000.10,0000.68,0000.00,0000.19,-000.46,-000.47,-000.17,19.6,25.9,08.4,05.7,0657.8,31.2
2021-06-29T21:07:00Z,00000200,00000000,0000.50,-000.02,0000.05,-000.02,-000.18,0000.16,-000.39,0000.03,-000.55,19.6,25.9,08.3,05.7,0657.9,31.2
2021-06-29T21:08:00Z,00000200,00000000,0000.51,0000.09,0000.20,-000.36,-000.13,0000.01,0000.21,-000.06,0000.07,19.6,25.9,08.3,05.7,0657.9,31.2
2021-06-29T21:09:00Z,00000200,00000000,0000.32,-000.33,0000.24,-000.37,-000.09,0000.07,-000.34,0000.13,0000.03,19.5,25.8,08.2,05.6,0657.9,31.2
2021-06-29T21:10:00Z,00000200,00000000,-000.37,0000.10,-000.10,0000.29,0000.01,-000.21,0000.22,-000.44,-000.04,19.5,25.8,08.2,05.6,0657.9,31.2
2021-06-29T21:11:00Z,00000200,00000000,0001.10,0000.41,0000.26,-000.23,0000.33,-000.05,-000.41,-000.17,-000.53,19.5,25.8,08.0,05.5,0657.9,31.2
2021-06-29T21:12:00Z,00000200,00000000,0000.48,0000.44,-000.34,0000.34,-000.12,-000.09,-000.28,-000.13,0000.08,19.5,25.8,07.9,05.4,0658.0,31.2
2021-06-29T21:13:00Z,00000200,00000000,0000.37,0000.29,0000.29,-000.44,0000.05,0000.10,-000.08,-000.28,-000.17,19.5,25.8,07.9,05.4,0657.9,31.2
2021-06-29T21:14:00Z,00000200,00000000,-000.02,0000.06,0000.41,0000.09,0000.04,0000.27,-000.10,-000.23,0000.03,19.4,25.8,07.7,05.2,0657.8,31.2
2021-06-29T21:15:00Z,00000200,00000000,-000.08,0000.33,0000.28,-000.46,-000.23,0000.18,-000.10,0000.33,0000.12,19.4,25.8,07.4,05.1,0657.9,31.2
2021-06-29T21:16:00Z,00000200,00000000,0000.08,-000.07,-000.22,-000.24,-000.22,0000.12,0000.05,0000.05,-000.03,19.4,25.8,07.4,05.1,0657.9,31.2
2021-06-29T21:17:00Z,00000200,00000000,0000.38,0000.24,-000.07,0000.13,0000.00,0000.22,-000.06,-000.16,0000.17,19.4,25.8,07.4,05.0,0657.9,31.2
2021-06-29T21:18:00Z,00000200,00000000,0000.57,0000.21,0000.01,0000.02,-000.04,0000.24,0000.03,-000.38,-000.43,19.5,25.8,07.2,04.9,0658.0,31.3
2021-06-29T21:19:00Z,00000200,00000000,0000.38,0000.01,0000.40,0000.41,-000.14,0000.09,-000.49,-000.31,-000.19,19.6,25.8,07.0,04.8,0657.9,31.2
2021-06-29T21:20:00Z,00000200,00000000,0000.76,0000.07,0000.02,-000.26,0000.00,-000.17,0000.10,0000.41,0000.07,19.6,25.9,06.7,04.6,0657.9,31.2
2021-06-29T21:21:00Z,00000200,00000000,0000.46,0000.17,-000.01,-000.32,0000.08,0000.12,-000.58,-000.47,-000.07,19.6,25.8,06.6,04.5,0657.9,31.2
2021-06-29T21:22:00Z,00000200,00000000,0000.46,-000.07,0000.10,-000.52,-000.09,0000.17,0000.19,-000.25,-000.30,19.6,25.9,06.5,04.4,0658.0,31.2
2021-06-29T21:23:00Z,00000200,00000000,0000.54,0000.06,-000.01,-000.23,-000.02,-000.55,0000.00,0000.32,0000.07,19.5,25.8,06.4,04.4,0658.0,31.2
2021-06-29T21:24:00Z,00000200,00000000,0000.49,0000.05,0000.17,-000.60,0000.20,0000.14,-000.19,-000.29,0000.31,19.5,25.8,06.4,04.3,0658.0,31.2
2021-06-29T21:25:00Z,00000200,00000000,0001.31,0000.09,-000.08,0000.53,0000.06,-000.03,-000.28,-000.03,-000.31,19.5,25.8,06.3,04.3,0657.9,31.2
2021-06-29T21:26:00Z,00000200,00000000,0000.00,0000.12,0000.27,0000.22,0000.04,0000.33,-000.13,-000.17,-000.20,19.4,25.8,06.2,04.2,0658.0,31.2
2021-06-29T21:27:00Z,00000200,00000000,0000.07,0000.09,-000.08,0000.28,0000.08,-000.06,0000.18,0000.04,-000.17,19.4,25.8,06.2,04.2,0658.1,31.2
2021-06-29T21:28:00Z,00000200,00000000,-000.25,-000.30,-000.02,0000.27,-000.10,-000.14,-000.11,-000.05,0000.21,19.4,25.8,06.1,04.1,0658.0,31.2
2021-06-29T21:29:00Z,00000200,00000000,0000.54,0000.26,0000.27,0000.07,-000.04,0000.10,-000.55,-000.11,-000.27,19.4,25.8,06.0,04.1,0658.0,31.2
2021-06-29T21:30:00Z,00000200,00000000,0000.64,0000.07,-000.38,0000.17,0000.11,-000.21,-000.05,-000.41,-000.28,19.3,25.7,05.7,03.9,0657.9,31.2
2021-06-29T21:31:00Z,00000200,00000000,0000.39,0000.11,-000.18,0000.32,0000.16,-000.00,0000.19,0000.60,0000.39,19.3,25.7,05.6,03.8,0658.0,31.2
2021-06-29T21:32:00Z,00000200,00000000,0000.38,0000.01,0000.08,0000.52,0000.12,0000.25,0000.16,-000.64,-000.17,19.4,25.7,05.7,03.9,0658.1,31.2
2021-06-29T21:33:00Z,00000200,00000000,0000.10,0000.07,-000.07,0000.28,0000.02,-000.21,-000.09,0000.51,0000.05,19.4,25.7,05.7,03.9,0658.0,31.2
2021-06-29T21:34:00Z,00000200,00000000,0000.11,-000.12,0000.02,0000.42,-000.05,0000.06,-000.31,-000.13,0000.05,19.5,25.8,05.7,03.9,0658.0,31.2
2021-06-29T21:35:00Z,00000200,00000000,0000.08,-000.00,-000.14,0000.36,0000.20,-000.12,0000.30,-000.04,0000.13,19.6,25.8,05.6,03.8,0658.1,31.2
2021-06-29T21:36:00Z,00000200,00000000,-000.39,0000.27,0000.21,0000.59,0000.16,-000.15,-000.06,0000.08,0000.16,19.6,25.9,05.5,03.7,0658.0,31.2
2021-06-29T21:37:00Z,00000200,00000000,0000.62,0000.16,0000.01,0000.30,-000.01,-000.18,-000.23,-000.30,-000.49,19.6,25.9,05.4,03.7,0658.1,31.2
2021-06-29T21:38:00Z,00000200,00000000,0000.36,0000.19,0000.13,-000.06,0000.44,-000.03,-000.04,-000.21,0000.48,19.6,25.9,05.3,03.6,0658.1,31.2
2021-06-29T21:39:00Z,00000200,00000000,0000.08,-000.05,0000.13,0000.02,0000.22,-000.23,-000.05,0000.04,-000.50,19.5,25.8,05.3,03.6,0658.0,31.2
2021-06-29T21:40:00Z,00000200,00000000,-000.17,-000.25,0000.16,-000.52,0000.19,0000.05,0000.15,0000.00,0000.01,19.5,25.8,05.3,03.6,0658.1,31.2
2021-06-29T21:41:00Z,00000200,00000000,0000.60,0000.20,0000.06,-000.47,0000.20,0000.27,0000.09,0000.04,0000.34,19.5,25.8,05.4,03.7,0658.2,31.2
2021-06-29T21:42:00Z,00000200,00000000,-000.13,-000.09,0000.10,0000.19,0000.12,-000.17,-000.58,-000.15,-000.48,19.4,25.8,05.1,03.5,0658.0,31.2
2021-06-29T21:43:00Z,00000200,00000000,0000.68,0000.43,-000.03,-000.28,0000.06,0000.21,-000.15,-000.25,0000.23,19.4,25.8,05.1,03.4,0658.1,31.2
2021-06-29T21:44:00Z,00000200,00000000,0000.21,0000.31,0000.18,0000.46,-000.03,0000.08,0000.08,0000.34,-000.39,19.3,25.8,05.1,03.4,0658.1,31.2
2021-06-29T21:45:00Z,00000200,00000000,0000.01,-000.03,0000.09,-000.09,-000.38,0000.35,0000.18,-000.33,0000.07,19.3,25.7,04.9,03.3,0658.0,31.2
2021-06-29T21:46:00Z,00000200,00000000,-000.12,-000.12,0000.37,0000.16,-000.11,0000.28,-000.33,-000.13,-000.05,19.3,25.7,04.8,03.3,0658.1,31.2
2021-06-29T21:47:00Z,00000200,00000000,0000.76,0000.19,-000.04,-000.27,0000.30,-000.07,-000.34,-000.01,0000.01,19.3,25.7,04.9,03.3,0658.1,31.2
2021-06-29T21:48:00Z,00000200,00000000,0001.70,-000.23,-000.02,0000.41,-000.10,-000.26,0000.50,0000.38,0000.24,19.3,25.7,05.0,03.4,0658.2,31.2
2021-06-29T21:49:00Z,00000200,00000000,-000.24,0000.07,0000.04,0000.32,-000.04,-000.01,-000.24,-000.15,-000.51,19.3,25.7,05.0,03.4,0658.1,31.2
2021-06-29T21:50:00Z,00000200,00000000,0000.69,-000.13,0000.08,0000.45,-000.22,0000.21,-000.01,0000.03,0000.23,19.3,25.7,04.9,03.3,0658.1,31.2
2021-06-29T21:51:00Z,00000200,00000000,-000.32,0000.06,0000.14,0000.35,0000.01,-000.03,0000.09,0000.10,0000.11,19.3,25.7,04.9,03.3,0658.2,31.2
2021-06-29T21:52:00Z,00000200,00000000,0000.07,0000.25,0000.02,0000.52,-000.06,0000.14,0000.06,-000.22,-000.05,19.3,25.7,04.9,03.3,0658.1,31.2
2021-06-29T21:53:00Z,00000200,00000000,0000.96,0000.30,-000.05,-000.36,0000.08,0000.08,-000.25,0000.05,-000.29,19.3,25.7,04.9,03.3,0658.2,31.2
2021-06-29T21:54:00Z,00000200,00000000,-000.00,-000.10,0000.13,0000.37,-000.20,0000.22,-000.03,-000.17,0000.04,19.2,25.7,04.8,03.2,0658.1,31.2
2021-06-29T21:55:00Z,00000200,00000000,0000.63,-000.22,-000.18,0000.11,-000.13,0000.22,0000.13,-000.00,-000.01,19.2,25.6,04.8,03.2,0658.2,31.2
2021-06-29T21:56:00Z,00000200,00000000,0000.41,0000.25,-000.21,0000.35,0000.18,0000.32,-000.21,-000.16,-000.08,19.1,25.6,04.7,03.2,0658.1,31.2
2021-06-29T21:57:00Z,00000200,40000000,,,,,,,0000.90,0000.67,0000.32,19.2,25.6,04.4,03.0,0658.0,31.2
2021-06-29T21:58:00Z,00000200,60000000,,,,,,,-000.66,-000.64,0000.07,18.9,25.7,05.3,03.5,0657.2,31.2
2021-06-29T21:59:00Z,00000200,20000000,,,,,,,0000.01,-000.04,-000.18,18.8,25.8,05.1,03.3,0657.2,31.2
